Find Starlink 11419

NORAD ID: 62883 Int'l Des: 2025-024 Owner: SPXS Country: US Constellation: starlink operational
LEOCIRCULAR

Live Position

Loading 3D Globe...

About Starlink 11419

Description loading...

Upcoming Passes

Passes for default location (London). Set your location on the main map for personalized predictions.

Altitude History

Loading altitude history...

Two-Line Element Set

1 62883U 25024E 26127.54858583 .00215994 00000-0 16410-2 0 9998
2 62883 42.9999 186.6693 0001481 302.6165 57.4559 15.70875477 72721
Epoch: May 7, 2026 • Age: 8 hours

Current Status

Altitude 359.6 km
Velocity 7.70 km/s
Sub-Earth Point 42.13°N, 76.71°E
Launch Date Feb 4, 2025
Age 1.2 years
Type internet

Technical Details

Classification Payload
Mass 960.00 kg
Dry Mass 910.00 kg
Total Mass 960.00 kg
Length 0.30 m
Diameter 4.10 m
Span 29.00 m
Shape Box + pan
Manufacturer SPXS
Bus Type Starlink V2MD
Phase Status In Orbit
Owner/State SPXS/US

Most Searched